Location: Brachbach
(49.1847°N, 9.7240°E)
Time: 02:06:31
(UTC+00:00)

ARIANE 6 FM1 Upper Stage - Pass Details

Date: 27 January 2026
Orbit: 522 x 609 km, 62.0° (Epoch: 13 February)

Event Time Altitude Azimuth Distance (km) Brightness Sun altitude
Rises 17:32:45 0° 231° (SW) 2,703 7.4 -13.6°
Reaches altitude 10° 17:34:59 10° 234° (SW) 1,801 6.3 -13.9°
Maximum altitude 17:39:00 67° 317° (NW) 581 2.8 -14.6°
Enters shadow 17:41:43 19° 37° (NE) 1,290 4.1 -15.0°
